Location: Caltech
(34.1382°N, 118.1253°W)
Time: 16:07:38
(UTC-08:00)

Cosmos 2084 - Visible Passes

Search period start: 21 November 2014 00:00
Search period end: 01 December 2014 00:00
Orbit: 565 x 633 km, 62.8° (Epoch: 21 November)

Date Brightness Start Highest point End Pass type
(mag) Time Alt. Az. Time Alt. Az. Time Alt. Az.
21 Nov 5.3 04:13:57 13° S 04:16:59 29° ESE 04:20:42 10° NE visible
21 Nov 4.6 05:53:07 10° WSW 05:56:36 24° NW 06:00:09 10° N visible
22 Nov 3.9 04:27:09 55° SSE 04:27:40 59° ESE 04:31:56 10° NE visible
22 Nov 5.2 06:05:28 10° WNW 06:07:43 14° NW 06:09:59 10° NNW visible
23 Nov 3.9 04:39:28 48° N 04:39:28 48° N 04:42:46 10° NNE visible
24 Nov 5.0 04:51:15 23° N 04:51:15 23° N 04:53:19 10° NNE visible
25 Nov 5.6 05:02:43 13° N 05:02:43 13° N 05:03:29 10° N visible
